Weather History for KNQX - October, 2013

Change the Weather History Date:

Sunday, October 20, 2013

  Actual Average (KEYW) Record (KEYW)
Temperature  
Mean Temperature 84 °F 80 °F  
Max Temperature 88 °F 84 °F 90 °F (1937)
Min Temperature 80 °F 76 °F 65 °F (1940)
Degree Days  
Heating Degree Days 0 0  
Month to date heating degree days 0  
Since 1 July heating degree days 0  
Cooling Degree Days 18 15  
Month to date cooling degree days 321  
Year to date cooling degree days 4056  
Growing Degree Days 34 (Base 50)    
Moisture  
Dew Point 75 °F    
Average Humidity 77    
Maximum Humidity 87    
Minimum Humidity 67    
Precipitation  
Precipitation 0.04 in 0.14 in 5.02 in (2007)
Month to date precipitation 3.49  
Year to date precipitation 33.87  
Snow  
Snow 0.00 in - - ()
Month to date snowfall  
Since 1 July snowfall  
Since 1 September snowfall  
Snow Depth -    
Sea Level Pressure  
Sea Level Pressure 29.92 in    
Wind  
Wind Speed 6 mph (South)    
Max Wind Speed 10 mph    
Max Gust Speed -    
Visibility 10 miles    
Events Rain    
T = Trace of Precipitation, MM = Missing Value Source: NWS Daily Summary

Daily Weather History Graph

Daily Weather History Graph

Search for Another Location

Airport or City:

Trip Planner

Search our weather history database for the weather conditions in past years. The results will help you decide how hot, cold, wet, or windy it might be!

Date:

Astronomy

Oct. 20, 2013 Rise Set
Actual Time 7:27 AM EDT 6:55 PM EDT
Civil Twilight 7:04 AM EDT 7:18 PM EDT
Nautical Twilight 6:37 AM EDT 7:45 PM EDT
Astronomical Twilight 6:10 AM EDT 8:11 PM EDT
Moon 8:15 PM EDT (10/20) 8:53 AM EDT (10/20)
Length of Visible Light 12h 14m
Length of Day
11h 28m
Full, 97% of the Moon is Illuminated
Oct 20
Full
Oct 26
Last Quarter
Nov 3
New
Nov 10
First Quarter
Nov 17
Full

Hourly Weather History & Observations

Time (EDT) Temp. Heat Index Dew Point Humidity Pressure Visibility Wind Dir Wind Speed Gust Speed Precip Events Conditions
12:53 AM 80.1 °F 84.5 °F 73.9 °F 81% 29.93 in 10.0 mi SSE 4.6 mph - N/A   Scattered Clouds
1:44 AM 80.6 °F 85.4 °F 73.4 °F 79% 29.91 in 10.0 mi SSE 5.8 mph - N/A   Mostly Cloudy
1:53 AM 81.0 °F 85.8 °F 73.0 °F 77% 29.91 in 10.0 mi SSE 6.9 mph - N/A   Partly Cloudy
2:53 AM 81.0 °F 85.8 °F 73.0 °F 77% 29.89 in 10.0 mi SSE 8.1 mph - N/A   Partly Cloudy
3:53 AM 81.0 °F 86.2 °F 73.9 °F 79% 29.88 in 10.0 mi SSE 4.6 mph - N/A   Mostly Cloudy
4:53 AM 81.0 °F 86.7 °F 75.0 °F 82% 29.88 in 10.0 mi South 5.8 mph - N/A   Scattered Clouds
5:53 AM 81.0 °F 86.7 °F 75.0 °F 82% 29.89 in 10.0 mi SE 6.9 mph - N/A   Scattered Clouds
5:56 AM 80.6 °F 86.2 °F 75.2 °F 84% 29.89 in 9.0 mi SSE 5.8 mph - 0.00 in Rain Light Rain
6:53 AM 80.1 °F 85.4 °F 75.9 °F 87% 29.90 in 6.0 mi South 6.9 mph - 0.04 in Rain Light Rain
7:53 AM 80.1 °F 85.4 °F 75.9 °F 87% 29.91 in 10.0 mi South 4.6 mph - 0.00 in   Mostly Cloudy
8:53 AM 82.9 °F 90.2 °F 75.0 °F 77% 29.93 in 10.0 mi SSW 6.9 mph - N/A   Scattered Clouds
9:53 AM 84.9 °F 93.3 °F 75.0 °F 72% 29.94 in 10.0 mi SSW 6.9 mph - N/A   Scattered Clouds
10:53 AM 84.9 °F 94.1 °F 75.9 °F 74% 29.95 in 10.0 mi SW 8.1 mph - N/A   Scattered Clouds
11:53 AM 86.0 °F 95.1 °F 75.0 °F 70% 29.95 in 10.0 mi SSW 5.8 mph - N/A   Scattered Clouds
12:53 PM 87.1 °F 97.3 °F 75.9 °F 69% 29.94 in 10.0 mi SSW 6.9 mph - N/A   Scattered Clouds
1:53 PM 87.1 °F 96.3 °F 75.0 °F 67% 29.93 in 10.0 mi SW 8.1 mph - N/A   Scattered Clouds
2:53 PM 86.0 °F 95.1 °F 75.0 °F 70% 29.91 in 10.0 mi SW 8.1 mph - N/A   Scattered Clouds
3:53 PM 87.1 °F 96.3 °F 75.0 °F 67% 29.90 in 10.0 mi SSW 10.4 mph - N/A   Scattered Clouds
4:53 PM 86.0 °F 95.1 °F 75.0 °F 70% 29.89 in 10.0 mi SSW 9.2 mph - N/A   Scattered Clouds
5:53 PM 84.0 °F 91.9 °F 75.0 °F 74% 29.90 in 10.0 mi West 8.1 mph - N/A   Scattered Clouds
6:53 PM 82.9 °F 89.4 °F 73.9 °F 74% 29.91 in 10.0 mi NW 3.5 mph - N/A   Scattered Clouds
7:53 PM 82.9 °F 90.2 °F 75.0 °F 77% 29.92 in 10.0 mi North 3.5 mph - N/A   Scattered Clouds
8:53 PM 82.0 °F 88.6 °F 75.0 °F 79% 29.93 in 10.0 mi North 3.5 mph - N/A   Scattered Clouds
9:53 PM 82.0 °F 88.6 °F 75.0 °F 79% 29.94 in 10.0 mi North 6.9 mph - N/A   Scattered Clouds
10:53 PM 82.0 °F 89.4 °F 75.9 °F 82% 29.96 in 10.0 mi NNE 4.6 mph - N/A   Partly Cloudy
11:53 PM 82.0 °F 90.2 °F 77.0 °F 85% 29.96 in 10.0 mi NNE 3.5 mph - N/A   Clear